Location: Agendoh
(31.0664°N, 8.9343°W)
Time: 23:00:59
(UTC+00:00)

Lacrosse 5 - Pass Details

Date: 02 July 2022
Orbit: 714 x 724 km, 57.0° (Epoch: 09 March)

Event Time Altitude Azimuth Distance (km) Brightness Sun altitude
Rises 20:26:56 0° 342° (NNW) 3,139 6.1 -8.8°
Reaches altitude 10° 20:32:14 10° 28° (NNE) 2,213 4.5 -9.8°
Maximum altitude 20:32:37 10° 33° (NNE) 2,207 4.4 -9.8°
Drops below altitude 10° 20:33:01 10° 37° (NE) 2,212 4.4 -9.9°
Enters shadow 20:37:23 - 77° (ENE) 2,889 4.6 -10.7°
